EWG2637 EDDF-LFPG

Flight info

Callsign EWG2637
Flight time N/A
Altitude 24000
Route SOBRA2L/18 SOBRA Y180 DIK UN857 TOLVU/N0401F230 DCT RAPOR DCT VEDUS
Aircraft A20N/M-SDE2E3FGHIRWXY/LB1

Departure

Time 2026-04-17 21:24
Airport Frankfurt Main Airport (EDDF)

Arrival

Time N/A
Airport Charles de Gaulle International Airport (LFPG)
Time Latitude Longitude Altitude Speed Heading
2026-04-17 20:33 50.04996 8.57597 353 ft 0 kts
2026-04-17 20:57 50.04988 8.57597 360 ft 1 kts
2026-04-17 20:58 50.04980 8.57597 358 ft 1 kts
2026-04-17 20:58 50.04973 8.57596 348 ft 1 kts
2026-04-17 20:58 50.04965 8.57596 354 ft 1 kts
2026-04-17 20:58 50.04957 8.57595 355 ft 1 kts
2026-04-17 20:59 50.04952 8.57595 354 ft 1 kts
2026-04-17 20:59 50.04944 8.57594 352 ft 1 kts 15°
2026-04-17 20:59 50.04937 8.57590 353 ft 1 kts 30°
2026-04-17 20:59 50.04930 8.57584 355 ft 1 kts 46°
2026-04-17 21:00 50.04925 8.57575 353 ft 1 kts 69°
2026-04-17 21:00 50.04923 8.57563 354 ft 1 kts 98°
2026-04-17 21:00 50.04924 8.57555 353 ft 0 kts 118°
2026-04-17 21:04 50.04914 8.57591 352 ft 7 kts 108°
2026-04-17 21:04 50.04891 8.57690 345 ft 12 kts 113°
2026-04-17 21:04 50.04852 8.57829 351 ft 16 kts 114°
2026-04-17 21:04 50.04830 8.57873 345 ft 3 kts 134°
2026-04-17 21:05 50.04802 8.57905 350 ft 7 kts 155°
2026-04-17 21:05 50.04760 8.57933 346 ft 0 kts 158°
2026-04-17 21:06 50.04758 8.57934 345 ft 0 kts 156°
2026-04-17 21:06 50.04755 8.57932 345 ft 1 kts 188°
2026-04-17 21:06 50.04715 8.57905 353 ft 16 kts 205°
2026-04-17 21:07 50.04654 8.57690 352 ft 32 kts 248°
2026-04-17 21:07 50.04591 8.57418 348 ft 19 kts 248°
2026-04-17 21:07 50.04540 8.57203 353 ft 23 kts 249°
2026-04-17 21:07 50.04493 8.57011 351 ft 13 kts 251°
2026-04-17 21:08 50.04449 8.56869 351 ft 15 kts 214°
2026-04-17 21:08 50.04433 8.56859 345 ft 0 kts 197°
2026-04-17 21:08 50.04432 8.56859 345 ft 0 kts 198°
2026-04-17 21:08 50.04440 8.56862 345 ft 1 kts 198°
2026-04-17 21:09 50.04450 8.56868 351 ft 0 kts 243°
2026-04-17 21:09 50.04447 8.56852 355 ft 4 kts 251°
2026-04-17 21:09 50.04432 8.56781 347 ft 9 kts 255°
2026-04-17 21:09 50.04411 8.56663 355 ft 13 kts 251°
2026-04-17 21:10 50.04376 8.56511 349 ft 17 kts 250°
2026-04-17 21:10 50.04352 8.56408 353 ft 1 kts 250°
2026-04-17 21:10 50.04347 8.56384 350 ft 2 kts 249°
2026-04-17 21:10 50.04336 8.56342 347 ft 6 kts 248°
2026-04-17 21:11 50.04313 8.56256 347 ft 11 kts 248°
2026-04-17 21:11 50.04283 8.56129 351 ft 14 kts 250°
2026-04-17 21:11 50.04246 8.55967 348 ft 18 kts 250°
2026-04-17 21:11 50.04199 8.55772 345 ft 21 kts 249°
2026-04-17 21:12 50.04145 8.55548 352 ft 23 kts 250°
2026-04-17 21:12 50.04131 8.55489 348 ft 0 kts 250°
2026-04-17 21:13 50.04125 8.55462 353 ft 6 kts 250°
2026-04-17 21:13 50.04105 8.55377 352 ft 11 kts 250°
2026-04-17 21:13 50.04074 8.55250 350 ft 14 kts 247°
2026-04-17 21:13 50.04034 8.55087 352 ft 17 kts 250°
2026-04-17 21:14 50.03989 8.54896 347 ft 20 kts 249°
2026-04-17 21:14 50.03970 8.54817 350 ft 2 kts 249°
2026-04-17 21:14 50.03958 8.54769 350 ft 7 kts 249°
2026-04-17 21:14 50.03935 8.54678 355 ft 11 kts 249°
2026-04-17 21:15 50.03905 8.54545 353 ft 15 kts 251°
2026-04-17 21:15 50.03876 8.54419 352 ft 1 kts 248°
2026-04-17 21:15 50.03872 8.54403 348 ft 0 kts 247°
2026-04-17 21:19 50.03871 8.54401 350 ft 2 kts 247°
2026-04-17 21:20 50.03845 8.54333 351 ft 12 kts 234°
2026-04-17 21:20 50.03792 8.54199 351 ft 17 kts 245°
2026-04-17 21:20 50.03750 8.54012 353 ft 20 kts 251°
2026-04-17 21:20 50.03695 8.53798 347 ft 23 kts 247°
2026-04-17 21:21 50.03638 8.53558 346 ft 25 kts 250°
2026-04-17 21:21 50.03574 8.53297 348 ft 27 kts 250°
2026-04-17 21:21 50.03505 8.53012 352 ft 29 kts 249°
2026-04-17 21:21 50.03436 8.52742 351 ft 15 kts 245°
2026-04-17 21:22 50.03432 8.52731 355 ft 0 kts 246°
2026-04-17 21:22 50.03432 8.52728 345 ft 2 kts 246°
2026-04-17 21:22 50.03430 8.52721 345 ft 0 kts 249°
2026-04-17 21:23 50.03418 8.52673 353 ft 12 kts 248°
2026-04-17 21:23 50.03246 8.52585 345 ft 53 kts 182°
2026-04-17 21:23 50.02645 8.52601 352 ft 118 kts 180°
2026-04-17 21:24 50.01651 8.52612 378 ft 163 kts 179°
2026-04-17 21:24 50.00493 8.52644 873 ft 167 kts 179°
2026-04-17 21:24 49.99376 8.52708 1706 ft 154 kts 177°
2026-04-17 21:24 49.98315 8.52794 2333 ft 157 kts 177°
2026-04-17 21:25 49.97157 8.52887 2730 ft 175 kts 177°
2026-04-17 21:25 49.95872 8.52982 3166 ft 194 kts 177°
2026-04-17 21:25 49.94452 8.53080 3628 ft 218 kts 178°
2026-04-17 21:25 49.92865 8.53187 3934 ft 232 kts 178°
2026-04-17 21:26 49.91248 8.53293 3997 ft 233 kts 178°
2026-04-17 21:26 49.89621 8.53399 3997 ft 233 kts 178°
2026-04-17 21:26 49.88004 8.53505 4000 ft 233 kts 178°
2026-04-17 21:26 49.86386 8.53611 3999 ft 233 kts 178°
2026-04-17 21:27 49.84760 8.53717 4025 ft 234 kts 178°
2026-04-17 21:27 49.83134 8.53824 4346 ft 237 kts 178°
2026-04-17 21:27 49.81481 8.53933 5297 ft 236 kts 178°
2026-04-17 21:27 49.79893 8.54397 6577 ft 233 kts 156°
2026-04-17 21:28 49.78611 8.55949 7585 ft 240 kts 127°
2026-04-17 21:28 49.77984 8.58327 8568 ft 247 kts 97°
2026-04-17 21:28 49.77898 8.61030 9459 ft 261 kts 92°
2026-04-17 21:28 49.77827 8.63962 10069 ft 283 kts 93°